Location: Wavehorne
(51.0500°N, 0.8333°E)
Time: 20:32:18
(UTC+00:00)

NOSS 2-2 (C) - Pass Details

Date: 02 November 2021
Orbit: 450 x 1756 km, 63.3° (Epoch: 26 November)

Event Time Altitude Azimuth Distance (km) Brightness Sun altitude
Rises 20:06:13 0° 277° (W) 2,488 7.7 -34.2°
Reaches altitude 10° 20:08:39 10° 297° (WNW) 1,679 6.6 -34.6°
Enters shadow 20:08:57 11° 300° (WNW) 1,601 6.4 -34.6°
